Flag for Switzerland Weather past 2 weeks in Biel, Switzerland

Now
65 °F

Mild.


Feels Like: 65 °F
Forecast: 38 / 70 °F
Wind: 18 mph from East

Location: Grenchen

Current Time: Apr 21, 2015 at 1:47:28 PM

Latest Report: Apr 21, 2015 at 1:00 PM


Visibility: N/A

Pressure: 30.32 "Hg

Humidity: 36%

Dew point: 37 °F

Location of BielLocation

Historic Weather in Biel — Graph

°F

Biel temperature yesterday

Maximum temperature yesterday: 65 °F (at 4:00 PM)
Minimum temperature yesterday: 36 °F (at 7:00 AM)
Average temperature yesterday: 51 °F

Past Weeks' High & Low Weather Summary

 TemperatureHumidityPressure
High73 °F (Apr 15, 5:00 PM)100% (Apr 10, 7:00 AM)30.60 "Hg (Apr 10, 7:00 AM)
Low28 °F (Apr 7, 7:00 AM)23% (Apr 8, 3:00 PM)29.96 "Hg (Apr 17, 6:00 PM)
Average50 °F66%30.28 "Hg
* Reported Apr 6 12:00 Noon — Apr 21 12:00 Noon, Biel, Weather by CustomWeather, © 2015

Note: Actual official high and low records may vary slightly from our data, if they occured in-between our weather recording intervals... More about our weather records

Advertising

Biel weather history for previous 24 hours

 ConditionsComfort  
Time TempWeatherWind HumidityBarometerVisibility
12:00 PM
Tue, Apr 21
62 °FRefreshingly cool.18 mph43%30.33 "HgN/A
11:00 AM59 °FRefreshingly cool.14 mph48%30.34 "HgN/A
10:00 AM54 °FCool.12 mph57%30.35 "HgN/A
9:00 AM50 °FCool.12 mph62%30.36 "HgN/A
8:00 AM45 °FCool.6 mph79%30.36 "HgN/A
7:00 AM41 °FQuite cool.7 mph78%30.36 "HgN/A
6:00 AM39 °FChilly.2 mph81%30.34 "HgN/A
5:00 AM42 °FQuite cool.2 mph76%30.33 "HgN/A
4:00 AM45 °FCool.3 mph68%30.32 "HgN/A
3:00 AM42 °FQuite cool.12 mph78%30.32 "HgN/A
2:00 AM41 °FQuite cool.7 mph80%30.33 "HgN/A
1:00 AM42 °FQuite cool.5 mph75%30.32 "HgN/A
12:00 AM44 °FQuite cool.5 mph76%30.31 "HgN/A
11:00 PM
Mon, Apr 20
49 °FCool.6 mph60%30.29 "HgN/A
10:00 PM52 °FCool.5 mph54%30.26 "HgN/A
9:00 PM58 °FRefreshingly cool.8 mph42%30.23 "HgN/A
8:00 PM60 °FRefreshingly cool.10 mph42%30.20 "HgN/A
7:00 PM63 °FMild.10 mph38%30.17 "HgN/A
6:00 PM64 °FMild.10 mph35%30.17 "HgN/A
5:00 PM65 °FMild.12 mph34%30.16 "HgN/A
4:00 PM65 °FMild.14 mph31%30.16 "HgN/A
3:00 PM64 °FMild.13 mph33%30.17 "HgN/A
2:00 PM64 °FMild.13 mph36%30.18 "HgN/A
1:00 PM61 °FRefreshingly cool.16 mph37%30.19 "HgN/A
Weather by CustomWeather, © 2015

See weather overviewHow to use our weather pages